This demonstration page uses our WeatherBlox Daily Observations layout. Learn more.

38.88101, -77.10428

Hourly Observations for November 16, 2016

Temp ( °F °C ) Dew Point ( °F °C ) Humidity (%) Winds ( mph kmh ) Pressure ( in mb ) Visibility ( mi km ) Precip ( " mm )
12:52 am 00:52 Mostly Cloudy 48 8.9 40 4.4 74 74 S 7 11 29.88 1012 10 16.09344 0 0
1:52 am 01:52 Mostly Cloudy 46 7.8 39 3.9 77 77 SW 5 7 29.88 1012 10 16.09344 0 0
2:52 am 02:52 Mostly Cloudy 44 6.7 38 3.3 79 79 SW 5 7 29.88 1012 10 16.09344 0 0
3:52 am 03:52 Mostly Cloudy 45 7.2 39 3.9 80 80 S 3 6 29.88 1012 10 16.09344 0 0
4:52 am 04:52 Mostly Cloudy 42 5.6 36 2.2 79 79 SSW 5 7 29.88 1012 10 16.09344 0 0
5:52 am 05:52 Mostly Cloudy 42 5.6 39 3.9 89 89 SW 5 7 29.88 1012 10 16.09344 0 0
6:52 am 06:52 Partly Cloudy 42 5.6 39 3.9 89 89 SW 5 7 29.88 1012 10 16.09344 0 0
7:52 am 07:52 Mostly Sunny 46 7.8 40 4.4 79 79 SW 6 9 29.91 1013 10 16.09344 0 0
8:52 am 08:52 Partly Cloudy 50 10 42 5.6 74 74 S 7 11 29.91 1013 10 16.09344 0 0
9:52 am 09:52 Mostly Cloudy 51 10.6 43 6.1 74 74 S 9 15 29.91 1013 10 16.09344 0 0
10:52 am 10:52 Mostly Cloudy 56 13.3 44 6.7 65 65 S 10 17 29.88 1012 10 16.09344 0 0
11:52 am 11:52 Partly Cloudy 62 16.7 42 5.6 48 48 SW 8 13 29.88 1012 10 16.09344 0 0
12:52 pm 12:52 Mostly Cloudy 66 18.9 40 4.4 39 39 WSW 14 22 29.85 1011 10 16.09344 0 0
1:52 pm 13:52 Partly Cloudy with Light Rain 64 17.8 43 6.1 46 46 WNW 8 13 29.83 1010 10 16.09344 0.001 0.001
2:52 pm 14:52 Mostly Cloudy 67 19.4 41 5 39 39 W 8 13 29.83 1010 10 16.09344 0.001 0.001
3:52 pm 15:52 Cloudy with Light Rain 62 16.7 45 7.2 54 54 NNW 13 20 29.88 1012 8 12.874752 0.001 0.001
4:52 pm 16:52 Mostly Cloudy 59 15 48 8.9 67 67 NW 7 11 29.88 1012 10 16.09344 0.02 0.508
5:52 pm 17:52 Mostly Cloudy 60 15.6 46 7.8 60 60 WNW 6 9 29.91 1013 10 16.09344 0 0
6:52 pm 18:52 Mostly Cloudy 55 12.8 50 10 83 83 W 5 7 29.94 1014 10 16.09344 0 0
7:52 pm 19:52 Mostly Clear 57 13.9 45 7.2 64 64 WNW 7 11 29.94 1014 10 16.09344 0 0
8:52 pm 20:52 Clear 54 12.2 45 7.2 72 72 W 7 11 29.97 1015 10 16.09344 0 0
9:52 pm 21:52 Clear 55 12.8 43 6.1 64 64 WNW 7 11 29.97 1015 10 16.09344 0 0
10:52 pm 22:52 Clear 50 10 46 7.8 86 86 S 5 7 29.97 1015 10 16.09344 0 0
11:52 pm 23:52 Clear 50 10 46 7.8 86 86 Calm 30 1016 10 16.09344 0 0

Powered by AerisWeather